This demonstration page uses our WeatherBlox Daily Observations layout. Learn more.

Left ArrowRight Arrow

39.08367, -84.50855

Hourly Observations for April 7, 2017

Temp ( °F °C ) Dew Point ( °F °C ) Humidity (%) Winds ( mph kmh ) Pressure ( in mb ) Visibility ( mi km ) Precip ( " mm )
12:53 am 00:53 Cloudy 42 5.6 31 -0.6 65 65 NW 8 13 29.88 1012 10 16 N/A
1:53 am 01:53 Cloudy 42 5.6 29 -1.7 60 60 WNW 10 17 29.88 1012 10 16 N/A
2:53 am 02:53 Cloudy 41 5 30 -1.1 65 65 WNW 7 11 29.89 1012 10 16 N/A
3:53 am 03:53 Cloudy 40 4.4 30 -1.1 68 68 WNW 9 15 29.90 1012 10 16 N/A
4:53 am 04:53 Cloudy 39 3.9 31 -0.6 73 73 NW 10 17 29.91 1013 10 16 N/A
5:40 am 05:40 Cloudy 39 4 32 undefined 75 75 NW 10 17 29.94 1014 10 16 N/A
5:53 am 05:53 Cloudy 39 3.9 31 -0.6 73 73 WNW 10 17 29.92 1013 10 16 N/A
6:53 am 06:53 Cloudy 38 3.3 31 -0.6 76 76 WNW 12 19 29.94 1014 10 16 N/A
7:43 am 07:43 Partly Cloudy 37 2.8 31 -0.6 79 79 W 8 13 29.94 1014 10 16 N/A
7:53 am 07:53 Mostly Sunny 37 2.8 30 -1.1 76 76 W 9 15 29.96 1015 10 16 N/A
8:53 am 08:53 Mostly Sunny 38 3.3 31 -0.6 76 76 WNW 9 15 29.97 1015 10 16 N/A
9:53 am 09:53 Mostly Cloudy 40 4.4 30 -1.1 68 68 NW 12 19 29.99 1016 10 16 N/A
10:53 am 10:53 Mostly Cloudy 43 6.1 32 undefined 65 65 N 12 19 30.01 1016 10 16 N/A
11:53 am 11:53 Cloudy 45 7.2 33 0.6 63 63 W 16 26 30.02 1017 10 16 N/A
12:53 pm 12:53 Mostly Cloudy 48 8.9 33 0.6 56 56 WNW 7 11 30.01 1016 10 16 N/A
1:53 pm 13:53 Partly Cloudy 51 10.6 34 1.1 52 52 NNW 14 22 30.01 1016 10 16 N/A
2:53 pm 14:53 Partly Cloudy 54 12.2 33 0.6 45 45 WNW 14 22 30.01 1016 10 16 N/A
3:53 pm 15:53 Partly Cloudy 55 12.8 34 1.1 45 45 NW 10 17 30.00 1016 10 16 N/A
4:53 pm 16:53 Sunny 56 13.3 32 undefined 40 40 WNW 14 22 30.00 1016 10 16 N/A
5:53 pm 17:53 Sunny 56 13.3 28 -2.2 34 34 NW 21 33 30.01 1016 10 16 N/A
6:53 pm 18:53 Sunny 54 12.2 29 -1.7 38 38 NW 10 17 30.01 1016 10 16 N/A
7:53 pm 19:53 Sunny 52 11.1 28 -2.2 40 40 NW 9 15 30.02 1017 10 16 N/A
8:53 pm 20:53 Clear 50 10 27 -2.8 41 41 NW 6 9 30.05 1018 10 16 N/A
9:53 pm 21:53 Clear 49 9.4 27 -2.8 43 43 W 6 9 30.07 1018 10 16 N/A
10:53 pm 22:53 Clear 48 8.9 25 -3.9 41 41 NW 6 9 30.08 1019 10 16 N/A
11:53 pm 23:53 Clear 45 7.2 24 -4.4 44 44 N N/A 30.07 1018 10 16 N/A

Powered by AerisWeather